• Join FlightAware (Why Join?)
  • Login
  • US Flag 
05:59AM EDT


 

Airport Tracker/Info


-or-


 

Live Flight TrackerFlight Track Log ✈ UAL6148 ✈ 28-Apr-2013 ✈ KLNK - KDEN

Flight Track Log - Related Links

Times and Time Zones

All times are in EDT time to prevent confusion due to time zone crossing. See the UAL6148 flight status page for this flight to view local times or setup timezone preferences in your user account.

Time Position Orientation Groundspeed Altitude Reporting Facility
EDT Latitude Longitude Course Direction KTS MPH feet Rate Location/Type
08:36PM 40.7861 -96.7844 214° Southwest 197 227 3,700  Level Minneapolis Center
08:37PM 40.7786 -96.8133 251° West 208 239 4,200 1,620 Climbing Minneapolis Center
08:37PM 40.7453 -96.8406 212° Southwest 237 273 5,400 2,040 Climbing Minneapolis Center
08:38PM 40.7564 -96.8917 286° West 252 290 6,300 2,580 Climbing Minneapolis Center
08:39PM 40.7461 -97.0069 263° West 265 305 9,700 2,520 Climbing Minneapolis Center
08:40PM 40.7353 -97.1103 262° West 279 321 11,500 1,380 Climbing Minneapolis Center
08:41PM 40.7244 -97.2333 263° West 324 373 12,600 1,380 Climbing Minneapolis Center
08:42PM 40.7114 -97.3644 263° West 353 406 14,400 1,800 Climbing Minneapolis Center
08:43PM 40.6994 -97.4839 263° West 358 412 16,300 1,980 Climbing Minneapolis Center
08:44PM 40.6844 -97.6389 263° West 355 409 18,500 1,680 Climbing Minneapolis Center
08:45PM 40.6717 -97.7692 263° West 357 411 20,200 1,560 Climbing Minneapolis Center
08:46PM 40.6556 -97.9286 262° West 364 419 22,100 1,680 Climbing Minneapolis Center
08:47PM 40.6425 -98.0622 263° West 366 421 23,700 1,560 Climbing Minneapolis Center
08:48PM 40.6283 -98.1953 262° West 366 421 25,300 1,620 Climbing Minneapolis Center
08:49PM 40.6150 -98.3281 263° West 365 420 27,100 1,680 Climbing Minneapolis Center
08:50PM 40.6058 -98.4567 265° West 357 411 28,800 1,500 Climbing Minneapolis Center
08:51PM 40.6172 -98.5792 277° West 342 394 30,200 1,140 Climbing Minneapolis Center
08:52PM 40.6297 -98.7075 277° West 347 399 31,200 840 Climbing Minneapolis Center
08:53PM 40.6433 -98.8669 276° West 358 412 32,000 360 Climbing Minneapolis Center
08:54PM 40.6533 -98.9800 277° West 373 429 32,000  Level Minneapolis Center
08:55PM 40.6683 -99.1594 276° West 400 460 32,000  Level Minneapolis Center
08:56PM 40.6789 -99.2764 277° West 400 460 32,000  Level Denver Center
08:57PM 40.6906 -99.4219 276° West 398 458 32,000  Level Denver Center
08:58PM 40.7033 -99.5692 277° West 402 463 32,000  Level Denver Center
08:59PM 40.7144 -99.7158 276° West 402 463 32,000  Level Denver Center
09:00PM 40.7269 -99.8714 276° West 404 465 32,000  Level Denver Center
09:01PM 40.7378 -100.0133 276° West 406 467 32,000  Level Denver Center
09:02PM 40.7506 -100.1778 276° West 404 465 32,000  Level Denver Center
09:03PM 40.7617 -100.3200 276° West 407 468 32,000  Level Denver Center
09:04PM 40.7722 -100.4622 276° West 407 468 32,000  Level Denver Center
09:05PM 40.7836 -100.6278 275° West 406 467 32,000  Level Denver Center
09:06PM 40.7656 -100.7856 261° West 421 484 32,000  Level Denver Center
09:07PM 40.7425 -100.9228 258° West 416 479 32,000  Level Denver Center
09:08PM 40.7233 -101.0408 258° West 413 475 32,000  Level Denver Center
09:09PM 40.6906 -101.2289 257° West 413 475 32,000  Level Denver Center
09:10PM 40.6614 -101.3933 257° West 414 476 32,000  Level Denver Center
09:11PM 40.6369 -101.5333 257° West 410 472 32,000  Level Denver Center
09:12PM 40.6119 -101.6731 257° West 411 473 32,000  Level Denver Center
09:13PM 40.5819 -101.8364 256° West 411 473 32,000  Level Denver Center
09:15PM 40.5564 -101.9767 257° West 411 473 32,000  Level Denver Center
09:16PM 40.5267 -102.1411 257° West 415 478 32,000  Level Denver Center
09:17PM 40.4989 -102.2833 256° West 419 482 32,000  Level Denver Center
09:18PM 40.4697 -102.4489 257° West 418 481 32,000  Level Denver Center
09:19PM 40.4428 -102.5922 256° West 422 486 32,000  Level Denver Center
09:20PM 40.4169 -102.7336 257° West 417 480 32,000  Level Denver Center
09:21PM 40.3836 -102.9089 256° West 420 483 32,000 -600 Level Denver Center
09:22PM 40.3553 -103.0567 256° West 415 478 30,800 -1,500 Descending Denver Center
09:23PM 40.3272 -103.2036 256° West 413 475 29,000 -1,500 Descending Denver Center
09:24PM 40.3006 -103.3425 256° West 393 452 27,700 -1,260 Descending Denver Center
09:25PM 40.2750 -103.4789 256° West 383 441 26,400 -1,200 Descending Denver Center
09:26PM 40.2478 -103.6106 255° West 373 429 25,300 -1,620 Descending Denver Center
09:27PM 40.2183 -103.7581 255° West 377 434 23,100 -2,040 Descending Denver Center
09:28PM 40.1903 -103.8811 253° West 356 410 21,100 -1,740 Descending Denver Center
09:29PM 40.1364 -103.9881 237° Southwest 353 406 19,600 -2,100 Descending Denver Center
09:30PM 40.0850 -104.1011 239° Southwest 339 390 16,900 -1,740 Descending Denver Center
09:31PM 40.0353 -104.2081 239° Southwest 345 397 16,100 -1,020 Descending Denver Center
09:32PM 39.9861 -104.3150 239° Southwest 347 399 14,900 -1,500 Descending Denver Center
09:33PM 39.9333 -104.4333 240° Southwest 312 359 13,000 -1,320 Descending Denver TRACON
09:34PM 39.8833 -104.5000 226° Southwest 301 346 12,300 -1,080 Descending Denver TRACON
09:35PM 39.8000 -104.5000 180° South 288 331 11,000 -1,140 Descending Denver TRACON
09:36PM 39.7167 -104.5000 180° South 261 300 10,100 -1,080 Descending Denver TRACON
09:37PM 39.6667 -104.5500 218° Southwest 246 283 8,900 -1,440 Descending Denver TRACON
09:38PM 39.7000 -104.6000 311° West 228 262 7,400 -1,380 Descending Denver TRACON
09:38PM 39.7067 -104.6272 288° West 232 267 7,300 -600 Descending Denver Center
09:39PM 39.7647 -104.6436 348° North 222 255 6,700 -780 Descending Denver Center
09:40PM 39.8128 -104.6431 North 176 203 5,800 -660 Descending Denver Center
09:41PM 39.8500 -104.6422 North 137 158 5,400 -420 Descending Denver Center
09:43PM 39.8500 -104.6667 270° West  Level FlightAware Approximate
09:50PM 39.8617 -104.6732 270° West  Level Estimated
09:51PM 39.8617 -104.6732 270° West  Level Estimated
09:52PM 39.8617 -104.6732 270° West  Level Estimated